Location: Bergfeld
(52.0500°N, 11.7833°E)
Time: 05:46:41
(UTC+00:00)

Cosmos 2322 Rocket - Pass Details

Date: 17 February 2020
Orbit: 832 x 851 km, 71.0° (Epoch: 28 March)

Event Time Altitude Azimuth Distance (km) Brightness Sun altitude
Exits shadow 05:38:01 - 320° (NW) 3,333 4.8 -7.9°
Reaches altitude 10° 05:41:57 10° 349° (NNW) 2,492 4.4 -7.3°
Maximum altitude 05:44:10 12° 12° (NNE) 2,338 4.5 -6.9°
Drops below altitude 10° 05:46:22 10° 35° (NE) 2,489 5.0 -6.6°
Sets 05:50:38 0° 65° (ENE) 3,421 6.3 -6.0°
